Location: Andiroba
(19.8650°S, 43.9258°W)
Time: 07:10:40
(UTC+00:00)

Cosmos 1447 Rocket - Pass Details

Date: 20 September 2024
Orbit: 954 x 995 km, 82.9° (Epoch: 12 October)

Event Time Altitude Azimuth Distance (km) Brightness Sun altitude
Rises 08:01:10 0° 191° (S) 3,682 7.4 -11.5°
Reaches altitude 10° 08:03:44 10° 194° (SSW) 2,724 6.7 -10.9°
Maximum altitude 08:09:50 59° 272° (W) 1,104 4.5 -9.5°
Drops below altitude 10° 08:15:50 10° 350° (N) 2,676 6.7 -8.1°
Sets 08:18:20 0° 354° (N) 3,613 7.4 -7.5°
